Погода в Асти

Италия     44°53′55″N   8°12′39″E
темп.,
°C
ветер,
м/с
пор.,
м/с
влажн.,
%
обл.,
%
осадки,
мм/ч
давл.,
гПа
погр.,
м
8 мая, сб
сб823:00+12с24555 0.0 101349
02:00+10зюз116394 0.0 101510
05:00+9ссз366274 0.0 1017110
08:00+12ссв478399 0.0 1020579
11:00+11св4583100 0.1 1021532
14:00+13св338097 0.1 1021727
17:00+17всв116647 0.0 1019992
20:00+15в11755 0.0 101911
9 мая, вс
вс923:00+12сз11845 0.0 102010
02:00+10с22895 0.0 102111
05:00+9ссз119316 0.0 102111
08:00+12с128698 0.0 1021163
11:00+14ссв237777 0.0 1021460
14:00+17ссв226698 0.0 10201160
17:00+17ссз226790 0.0 1018776
20:00+15ссз2377100 0.0 101869
10 мая, пн
пн1023:00+14з2274100 0.0 101919
02:00+14зсз117666 0.1 101811
05:00+12зюз118596 0.2 101829
08:00+12сз128754 0.3 101889
11:00+17в1273100 0.0 1017718
14:00+16ссз3281100 0.1 1016489
17:00+16ссв3287100 1.6 1015204
20:00+14св2398100 6.1 101489
11 мая, вт
вт1123:00+13в129991 1.7 101479
02:00+13ю2399100 2.2 1013156
05:00+13в2798100 0.4 1012289
08:00+13всв51296100 0.6 1009461
11:00+13в5896100 5.0 1009429
14:00+13ссз129898 20.3 1007158
17:00+15ююв3385100 0.5 1005427
20:00+13с3394100 3.9 1006174
12 мая, ср
ср1223:00+10ссз4798100 2.6 1007357
02:00+10с3997100 9.8 1007385
05:00+9зюз349799 0.6 100799
08:00+11зюз37924 0.6 1007265
11:00+16юз22593 0.0 1007689
14:00+20ююз124713 0.0 10061158
17:00+20ююв445986 0.0 10051306
20:00+14ююв378179 0.1 1005230